Flag for Italy Weather past 2 weeks in Naples, Italy

Now
79 °F

Sunny.


Feels Like: 81 °F
Forecast: 68 / 85 °F
Wind: 7 mph from Northwest

Location: Naples / Capodichino

Current Time: Jul 25, 2014 at 9:12:14 PM

Latest Report: Jul 25, 2014 at 8:20 PM


Visibility: 10 mi

Pressure: 29.95 "Hg

Humidity: 70%

Dew point: 68 °F

Location of NaplesLocation

Historic Weather in Naples — Graph

°F

Naples temperature yesterday

Maximum temperature yesterday: 82 °F (at 4:20 PM)
Minimum temperature yesterday: 68 °F (at 5:20 AM)
Average temperature yesterday: 75 °F

Past Weeks' High & Low Weather Summary

 TemperatureHumidityPressure
High90 °F (Jul 17, 3:50 PM)94% (Jul 13, 6:50 AM)30.04 "Hg (Jul 13, 6:50 AM)
Low61 °F (Jul 11, 2:50 AM)29% (Jul 19, 5:50 PM)29.62 "Hg (Jul 14, 4:50 PM)
Average76 °F66%29.93 "Hg
* Reported Jul 10 7:20 PM — Jul 25 7:50 PM, Naples, Weather by CustomWeather, © 2014

Note: Actual official high and low records may vary slightly from our data, if they occured in-between our weather recording intervals... More about our weather records

Advertising

Naples weather history for previous 24 hours

 ConditionsComfort  
Time TempWeatherWind HumidityBarometerVisibility
7:50 PM
Jul 25
81 °FPassing clouds.6 mph66%29.95 "HgN/A
7:20 PM81 °FPassing clouds.7 mph66%29.95 "HgN/A
6:50 PM81 °FPassing clouds.8 mph62%29.95 "HgN/A
6:20 PM82 °FPassing clouds.7 mph58%29.92 "HgN/A
5:50 PM82 °FPassing clouds.9 mph58%29.95 "HgN/A
5:20 PM82 °FSunny.9 mph58%29.92 "Hg10 mi
4:50 PM82 °FPassing clouds.8 mph58%29.92 "HgN/A
4:20 PM84 °FPassing clouds.5 mph55%29.92 "HgN/A
3:50 PM82 °FPassing clouds.10 mph58%29.95 "HgN/A
3:20 PM84 °FScattered clouds.7 mph55%29.95 "HgN/A
2:50 PM82 °FScattered clouds.7 mph58%29.95 "HgN/A
2:20 PM82 °FScattered clouds.5 mph55%29.95 "HgN/A
1:50 PM82 °FScattered clouds.5 mph62%29.95 "HgN/A
1:20 PM82 °FScattered clouds.7 mph62%29.95 "HgN/A
12:50 PM81 °FSunny.10 mph54%29.92 "Hg10 mi
12:20 PM79 °FPassing clouds.10 mph61%29.92 "HgN/A
11:50 AM79 °FPassing clouds.9 mph58%29.92 "HgN/A
11:20 AM79 °FPassing clouds.9 mph61%29.92 "HgN/A
10:50 AM79 °FPassing clouds.8 mph58%29.92 "HgN/A
10:20 AM79 °FScattered clouds.5 mph70%29.95 "HgN/A
9:50 AM81 °FScattered clouds.5 mph66%29.95 "HgN/A
9:20 AM79 °FScattered clouds.6 mph65%29.95 "HgN/A
8:50 AM79 °FPassing clouds.5 mph65%29.95 "HgN/A
8:20 AM77 °FPassing clouds.7 mph65%29.92 "HgN/A
7:50 AM75 °FSunny.2 mph78%29.95 "Hg10 mi
7:20 AM75 °FSunny.1 mph83%29.92 "Hg10 mi
6:50 AM72 °FClear.1 mph88%29.92 "Hg10 mi
6:20 AM70 °FClear.1 mph94%29.92 "Hg10 mi
5:50 AM70 °FClear.No wind88%29.92 "Hg10 mi
5:20 AM70 °FClear.No wind88%29.92 "Hg10 mi
4:50 AM70 °FClear.No wind88%29.92 "Hg10 mi
4:20 AM70 °FClear.1 mph94%29.92 "Hg10 mi
3:50 AM72 °FPassing clouds.1 mph88%29.92 "HgN/A
3:20 AM70 °FPassing clouds.1 mph88%29.92 "HgN/A
2:50 AM72 °FPassing clouds.No wind88%29.92 "HgN/A
2:20 AM72 °FClear.1 mph88%29.92 "Hg10 mi
1:50 AM73 °FClear.2 mph89%29.92 "Hg10 mi
1:20 AM73 °FClear.2 mph83%29.92 "Hg10 mi
12:50 AM73 °FClear.No wind83%29.92 "Hg10 mi
12:20 AM73 °FClear.2 mph83%29.92 "Hg10 mi
11:50 PM
Jul 24
73 °FPassing clouds.2 mph89%29.92 "HgN/A
11:20 PM73 °FClear.5 mph83%29.92 "Hg10 mi
10:50 PM75 °FPassing clouds.6 mph78%29.92 "HgN/A
10:20 PM75 °FClear.5 mph78%29.92 "Hg10 mi
9:50 PM75 °FClear.5 mph83%29.92 "Hg10 mi
9:20 PM75 °FPassing clouds.3 mph78%29.92 "HgN/A
Weather by CustomWeather, © 2014

See weather overviewHow to use our weather pages